الصفحة الرئيسية
METAR-TAF:

METAR-TAF

مطار :

مقاطعة ستانتون, كانساس, الولايات المتحدة

دائرة عرض: 37-35-07N, خط طول: 101-43-56W, ارتفاع: 1013 متر

مراقبة الطقس الحالي

تاريخ ووقت الإصدار 19 دقيقة قبل الساعة 13:55UTC
ريح 10 عقدة من الغرب
درجة الحرارة -8°درجة مئوية
الرطوبة 67%
ضغط 1019 hPa
الرؤية: 16.1 كم
سماء صافية

METAR: KJHN 231355Z AUTO 27010KT 10SM CLR M08/M13 A3008 RMK AO2 T10771127

زمن: 08:14 (14:14 UTC)


TAF: مفقودة

أرصاد الطقس والتوقعات من أكثر من 4000 مطار (تقارير الطقس للمطار METAR والتنبؤ بالطقس بالمطارTAF).

المحطات المتاحة هي النقط الصفراء والحمراء على الخريطة.

حرك المؤشر فوق النقطة لمعرفة اسم المحطة.

ثم انقر لمعرفة أرصاد وتوقعات الطقس.

لتغيير الخارطة: اضغط على الأزرار الخضراء مع رمز الصليب الأسود للتكبير. على الزر الأخضر مع شرطة للتصغير، أو على الأسهم الخضراء للخرائط المجاورة.


METAR-TAF: